Time,TemperatureF,DewpointF,PressureIn,WindDirection,WindDirectionDegrees,WindSpeedMPH,WindSpeedGustMPH,Humidity,HourlyPrecipIn,Conditions,Clouds,dailyrainin,SolarRadiationWatts/m^2,SoftwareType,DateUTC
2013-07-25 00:05:00,77.9,74.1,30.05,ENE,71,6.9,6.9,88,0.00,CLR,,0.00,1.0,WeatherDisplay:10.37,2013-07-25 05:05:00,
2013-07-25 00:10:00,77.8,74.0,30.05,ENE,77,5.8,5.8,88,0.00,CLR,,0.00,1.0,WeatherDisplay:10.37,2013-07-25 05:10:00,
2013-07-25 00:15:00,77.6,73.8,30.05,East,79,3.0,6.0,88,0.00,,,0.00,1.0,WeatherDisplay:10.37,2013-07-25 05:15:00,
2013-07-25 00:20:00,77.5,74.0,30.05,East,83,5.0,6.0,89,0.00,,,0.00,0.0,WeatherDisplay:10.37,2013-07-25 05:20:00,
2013-07-25 00:25:00,77.4,73.9,30.05,East,81,5.0,7.0,89,0.00,,,0.00,0.0,WeatherDisplay:10.37,2013-07-25 05:25:00,
2013-07-25 00:30:00,77.3,73.8,30.05,ENE,75,5.0,7.0,89,0.00,,,0.00,1.0,WeatherDisplay:10.37,2013-07-25 05:30:00,
2013-07-25 00:35:00,77.2,73.7,30.05,ENE,73,5.0,6.0,89,0.00,,,0.00,1.0,WeatherDisplay:10.37,2013-07-25 05:35:00,
2013-07-25 00:40:00,77.1,73.6,30.05,ENE,78,6.0,8.0,89,0.00,,,0.00,1.0,WeatherDisplay:10.37,2013-07-25 05:40:00,
2013-07-25 00:45:00,76.9,73.8,30.05,ENE,77,6.0,7.0,90,0.00,,,0.00,0.0,WeatherDisplay:10.37,2013-07-25 05:45:00,
2013-07-25 00:50:00,76.8,73.6,30.05,ENE,75,6.0,7.0,90,0.00,,,0.00,0.0,WeatherDisplay:10.37,2013-07-25 05:50:00,
2013-07-25 00:55:00,76.7,73.6,30.05,East,81,6.0,7.0,90,0.00,,,0.00,0.0,WeatherDisplay:10.37,2013-07-25 05:55:00,
2013-07-25 01:00:00,76.4,73.2,30.04,East,101,6.9,6.9,90,0.00,CLR,,0.00,1.0,WeatherDisplay:10.37,2013-07-25 06:00:00,
2013-07-25 01:05:00,76.2,73.4,30.04,East,84,6.9,6.9,91,0.00,CLR,,0.00,1.0,WeatherDisplay:10.37,2013-07-25 06:05:00,
2013-07-25 01:10:00,76.1,73.3,30.04,East,94,5.8,5.8,91,0.00,CLR,,0.00,1.0,WeatherDisplay:10.37,2013-07-25 06:10:00,
2013-07-25 01:15:00,76.0,73.5,30.04,East,85,5.8,5.8,92,0.00,CLR,,0.00,1.0,WeatherDisplay:10.37,2013-07-25 06:15:00,
2013-07-25 01:20:00,75.9,73.4,30.04,East,87,5.8,5.8,92,0.00,CLR,,0.00,1.0,WeatherDisplay:10.37,2013-07-25 06:20:00,
2013-07-25 01:25:00,75.8,73.3,30.04,East,94,5.8,5.8,92,0.00,CLR,,0.00,1.0,WeatherDisplay:10.37,2013-07-25 06:25:00,
2013-07-25 01:30:00,75.6,73.1,30.04,East,88,5.8,5.8,92,0.00,CLR,,0.00,1.0,WeatherDisplay:10.37,2013-07-25 06:30:00,
2013-07-25 01:36:00,75.5,73.3,30.04,East,88,4.8,4.8,93,0.00,CLR,,0.00,1.0,WeatherDisplay:10.37,2013-07-25 06:36:00,
2013-07-25 01:41:00,75.4,73.2,30.04,ESE,105,5.8,5.8,93,0.00,CLR,,0.00,1.0,WeatherDisplay:10.37,2013-07-25 06:41:00,
2013-07-25 01:47:00,75.3,73.1,30.04,East,97,5.8,5.8,93,0.00,CLR,,0.00,1.0,WeatherDisplay:10.37,2013-07-25 06:47:00,
2013-07-25 01:52:00,75.2,73.0,30.04,East,92,4.6,4.6,93,0.00,CLR,,0.00,1.0,WeatherDisplay:10.37,2013-07-25 06:52:00,
2013-07-25 01:57:00,75.1,72.9,30.04,East,79,4.8,4.8,93,0.00,CLR,,0.00,1.0,WeatherDisplay:10.37,2013-07-25 06:57:00,
2013-07-25 02:02:00,75.0,73.2,30.04,East,91,6.9,6.9,94,0.00,CLR,,0.00,1.0,WeatherDisplay:10.37,2013-07-25 07:02:00,
2013-07-25 02:07:00,75.0,73.2,30.04,ESE,107,4.6,4.6,94,0.00,CLR,,0.00,1.0,WeatherDisplay:10.37,2013-07-25 07:07:00,
2013-07-25 02:12:00,74.9,73.1,30.04,East,92,5.7,5.7,94,0.00,CLR,,0.00,1.0,WeatherDisplay:10.37,2013-07-25 07:12:00,
2013-07-25 02:18:00,74.8,73.0,30.04,East,91,6.9,6.9,94,0.00,CLR,,0.00,1.0,WeatherDisplay:10.37,2013-07-25 07:18:00,
2013-07-25 02:23:00,74.8,73.0,30.04,ENE,78,5.8,5.8,94,0.00,CLR,,0.00,1.0,WeatherDisplay:10.37,2013-07-25 07:23:00,
2013-07-25 02:28:00,74.6,72.8,30.04,East,91,5.8,5.8,94,0.00,CLR,,0.00,1.0,WeatherDisplay:10.37,2013-07-25 07:28:00,
2013-07-25 02:33:00,74.6,73.1,30.04,East,92,5.8,5.8,95,0.00,CLR,,0.00,1.0,WeatherDisplay:10.37,2013-07-25 07:33:00,
2013-07-25 02:38:00,74.5,73.0,30.04,East,79,5.8,5.8,95,0.00,CLR,,0.00,1.0,WeatherDisplay:10.37,2013-07-25 07:38:00,
2013-07-25 02:43:00,74.4,72.9,30.04,East,86,5.8,5.8,95,0.00,CLR,,0.00,1.0,WeatherDisplay:10.37,2013-07-25 07:43:00,
2013-07-25 02:48:00,74.4,72.9,30.03,East,84,5.8,5.8,95,0.00,CLR,,0.00,1.0,WeatherDisplay:10.37,2013-07-25 07:48:00,
2013-07-25 02:53:00,74.3,72.8,30.04,ENE,76,5.8,5.8,95,0.00,CLR,,0.00,1.0,WeatherDisplay:10.37,2013-07-25 07:53:00,
2013-07-25 02:58:00,74.2,72.7,30.03,East,92,5.8,5.8,95,0.00,CLR,,0.00,2.0,WeatherDisplay:10.37,2013-07-25 07:58:00,
2013-07-25 03:04:00,74.1,72.9,30.03,East,94,4.6,4.6,96,0.00,CLR,,0.00,1.0,WeatherDisplay:10.37,2013-07-25 08:04:00,
2013-07-25 03:09:00,74.0,72.8,30.04,East,89,4.6,4.6,96,0.00,CLR,,0.00,1.0,WeatherDisplay:10.37,2013-07-25 08:09:00,
2013-07-25 03:14:00,74.0,72.8,30.04,ENE,74,3.5,3.5,96,0.00,CLR,,0.00,1.0,WeatherDisplay:10.37,2013-07-25 08:14:00,
2013-07-25 03:19:00,73.9,72.7,30.04,ENE,69,3.6,3.6,96,0.00,CLR,,0.00,2.0,WeatherDisplay:10.37,2013-07-25 08:19:00,
2013-07-25 03:24:00,73.8,72.6,30.04,ENE,72,4.6,4.6,96,0.00,CLR,,0.00,1.0,WeatherDisplay:10.37,2013-07-25 08:24:00,
2013-07-25 03:29:00,73.7,72.5,30.04,ENE,71,5.8,5.8,96,0.00,CLR,,0.00,1.0,WeatherDisplay:10.37,2013-07-25 08:29:00,
2013-07-25 03:34:00,73.7,72.5,30.05,ENE,68,5.1,5.1,96,0.00,CLR,,0.00,1.0,WeatherDisplay:10.37,2013-07-25 08:34:00,
2013-07-25 03:40:00,73.7,72.8,30.05,ENE,66,5.8,5.8,97,0.00,CLR,,0.00,1.0,WeatherDisplay:10.37,2013-07-25 08:40:00,
2013-07-25 03:45:00,73.7,72.8,30.05,ENE,68,5.0,7.0,97,0.00,,,0.00,0.0,WeatherDisplay:10.37,2013-07-25 08:45:00,
2013-07-25 03:50:00,73.6,72.7,30.05,ENE,68,5.0,6.0,97,0.00,,,0.00,0.0,WeatherDisplay:10.37,2013-07-25 08:50:00,
2013-07-25 03:55:00,73.6,72.7,30.05,ENE,72,4.6,4.6,97,0.00,CLR,,0.00,1.0,WeatherDisplay:10.37,2013-07-25 08:55:00,
2013-07-25 04:00:00,73.6,72.6,30.04,ENE,76,5.0,5.0,97,0.00,,,0.00,0.0,WeatherDisplay:10.37,2013-07-25 09:00:00,
2013-07-25 04:05:00,73.5,72.6,30.05,ENE,77,5.0,5.0,97,0.00,,,0.00,1.0,WeatherDisplay:10.37,2013-07-25 09:05:00,
2013-07-25 04:10:00,73.5,72.6,30.05,ENE,78,3.0,6.0,97,0.00,,,0.00,1.0,WeatherDisplay:10.37,2013-07-25 09:10:00,
2013-07-25 04:15:00,73.5,72.6,30.05,East,79,3.0,5.0,97,0.00,,,0.00,0.0,WeatherDisplay:10.37,2013-07-25 09:15:00,
2013-07-25 04:20:00,73.4,72.5,30.05,ENE,78,5.0,5.0,97,0.00,,,0.00,0.0,WeatherDisplay:10.37,2013-07-25 09:20:00,
2013-07-25 04:25:00,73.4,72.5,30.05,ENE,78,5.0,6.0,97,0.00,,,0.00,0.0,WeatherDisplay:10.37,2013-07-25 09:25:00,
2013-07-25 04:30:00,73.3,72.4,30.05,ENE,76,6.0,6.0,97,0.00,,,0.00,0.0,WeatherDisplay:10.37,2013-07-25 09:30:00,
2013-07-25 04:35:00,73.3,72.7,30.05,ENE,77,6.0,7.0,98,0.00,,,0.00,0.0,WeatherDisplay:10.37,2013-07-25 09:35:00,
2013-07-25 04:40:00,73.3,72.7,30.05,East,84,6.9,6.9,98,0.00,CLR,,0.00,1.0,WeatherDisplay:10.37,2013-07-25 09:40:00,
2013-07-25 04:45:00,73.3,72.7,30.05,East,85,6.0,8.0,98,0.00,,,0.00,0.0,WeatherDisplay:10.37,2013-07-25 09:45:00,
2013-07-25 04:50:00,73.3,72.7,30.05,East,91,3.0,7.0,98,0.00,,,0.00,0.0,WeatherDisplay:10.37,2013-07-25 09:50:00,
2013-07-25 04:55:00,73.2,72.6,30.05,East,94,6.0,7.0,98,0.00,,,0.00,0.0,WeatherDisplay:10.37,2013-07-25 09:55:00,
2013-07-25 05:00:00,73.1,72.5,30.06,East,94,6.0,8.0,98,0.00,,,0.00,0.0,WeatherDisplay:10.37,2013-07-25 10:00:00,
2013-07-25 05:05:00,73.0,72.4,30.05,East,92,6.0,8.0,98,0.00,,,0.00,0.0,WeatherDisplay:10.37,2013-07-25 10:05:00,
2013-07-25 05:10:00,73.0,72.4,30.05,East,85,8.1,8.1,98,0.00,CLR,,0.00,1.0,WeatherDisplay:10.37,2013-07-25 10:10:00,
2013-07-25 05:15:00,73.0,72.5,30.06,East,91,6.0,8.0,98,0.00,,,0.00,1.0,WeatherDisplay:10.37,2013-07-25 10:15:00,
2013-07-25 05:20:00,73.0,72.4,30.06,East,92,6.0,10.0,98,0.00,,,0.00,1.0,WeatherDisplay:10.37,2013-07-25 10:20:00,
2013-07-25 05:25:00,73.0,72.7,30.05,East,94,7.0,8.0,99,0.00,,,0.00,0.0,WeatherDisplay:10.37,2013-07-25 10:25:00,
2013-07-25 05:30:00,72.9,72.6,30.06,East,95,6.0,8.0,99,0.00,,,0.00,0.0,WeatherDisplay:10.37,2013-07-25 10:30:00,
2013-07-25 05:35:00,72.8,72.5,30.06,ESE,110,6.9,6.9,99,0.00,CLR,,0.00,1.0,WeatherDisplay:10.37,2013-07-25 10:35:00,
2013-07-25 05:40:00,72.7,72.4,30.06,East,88,8.1,8.1,99,0.00,CLR,,0.00,1.0,WeatherDisplay:10.37,2013-07-25 10:40:00,
2013-07-25 05:45:00,72.8,72.5,30.06,East,96,6.9,6.9,99,0.00,CLR,,0.00,1.0,WeatherDisplay:10.37,2013-07-25 10:45:00,
2013-07-25 05:50:00,72.8,72.5,30.07,East,83,6.3,6.3,99,0.00,CLR,,0.00,1.0,WeatherDisplay:10.37,2013-07-25 10:50:00,
2013-07-25 05:56:00,72.8,72.5,30.07,East,88,5.8,5.8,99,0.00,CLR,,0.00,1.0,WeatherDisplay:10.37,2013-07-25 10:56:00,
2013-07-25 06:01:00,72.8,72.5,30.07,East,98,8.1,8.1,99,0.00,CLR,,0.00,1.0,WeatherDisplay:10.37,2013-07-25 11:01:00,
2013-07-25 06:07:00,72.6,72.3,30.06,ESE,106,8.1,8.1,99,0.00,OVC,,0.00,2.0,WeatherDisplay:10.37,2013-07-25 11:07:00,
2013-07-25 06:12:00,72.6,72.6,30.07,East,90,8.1,8.1,100,0.00,OVC,,0.00,2.0,WeatherDisplay:10.37,2013-07-25 11:12:00,
2013-07-25 06:17:00,72.7,72.7,30.07,ENE,65,6.9,6.9,100,0.00,OVC,,0.00,2.0,WeatherDisplay:10.37,2013-07-25 11:17:00,
2013-07-25 06:22:00,72.7,72.7,30.07,ENE,76,6.9,6.9,100,0.00,OVC,,0.00,4.0,WeatherDisplay:10.37,2013-07-25 11:22:00,
2013-07-25 06:27:00,72.7,72.7,30.07,East,83,6.9,6.9,100,0.00,OVC,,0.00,5.0,WeatherDisplay:10.37,2013-07-25 11:27:00,
2013-07-25 06:32:00,72.7,72.7,30.07,East,87,5.8,5.8,100,0.00,OVC,,0.00,6.0,WeatherDisplay:10.37,2013-07-25 11:32:00,
2013-07-25 06:37:00,72.6,72.6,30.07,ENE,75,6.9,6.9,100,0.00,OVC,,0.00,15.0,WeatherDisplay:10.37,2013-07-25 11:37:00,
2013-07-25 06:43:00,72.6,72.6,30.08,East,90,8.1,8.1,100,0.00,OVC,,0.00,19.0,WeatherDisplay:10.37,2013-07-25 11:43:00,
2013-07-25 06:48:00,72.5,72.5,30.08,ESE,104,6.9,6.9,100,0.00,OVC,,0.00,64.0,WeatherDisplay:10.37,2013-07-25 11:48:00,
2013-07-25 06:53:00,72.6,72.6,30.08,East,95,6.9,6.9,100,0.00,OVC,,0.00,94.0,WeatherDisplay:10.37,2013-07-25 11:53:00,
2013-07-25 06:58:00,72.6,72.6,30.08,ESE,112,6.9,6.9,100,0.00,OVC,,0.00,116.0,WeatherDisplay:10.37,2013-07-25 11:58:00,
2013-07-25 07:04:00,72.7,72.7,30.08,ESE,113,3.6,3.6,100,0.00,OVC,,0.00,136.0,WeatherDisplay:10.37,2013-07-25 12:04:00,
2013-07-25 07:09:00,72.9,72.9,30.08,ESE,123,4.5,4.5,100,0.00,OVC,,0.00,149.0,WeatherDisplay:10.37,2013-07-25 12:09:00,
2013-07-25 07:14:00,73.0,73.0,30.08,East,82,4.6,4.6,100,0.00,OVC,,0.00,152.0,WeatherDisplay:10.37,2013-07-25 12:14:00,
2013-07-25 07:19:00,73.3,73.3,30.08,SSE,165,4.6,4.6,100,0.00,OVC,,0.00,186.0,WeatherDisplay:10.37,2013-07-25 12:19:00,
2013-07-25 07:24:00,73.6,73.6,30.08,ESE,119,5.8,5.8,100,0.00,OVC,,0.00,214.0,WeatherDisplay:10.37,2013-07-25 12:24:00,
2013-07-25 07:30:00,73.8,73.8,30.08,ESE,108,6.0,7.0,100,0.00,OVC,,0.00,204.0,WeatherDisplay:10.37,2013-07-25 12:30:00,
2013-07-25 07:35:00,74.2,73.9,30.08,East,100,5.0,8.0,99,0.00,OVC,,0.00,108.0,WeatherDisplay:10.37,2013-07-25 12:35:00,
2013-07-25 07:40:00,74.2,73.9,30.09,ESE,102,8.1,8.1,99,0.00,OVC,,0.00,140.0,WeatherDisplay:10.37,2013-07-25 12:40:00,
2013-07-25 07:45:00,74.4,73.8,30.09,East,101,3.0,8.0,98,0.00,OVC,,0.00,122.0,WeatherDisplay:10.37,2013-07-25 12:45:00,
2013-07-25 07:50:00,74.6,74.0,30.09,ESE,104,5.0,8.0,98,0.00,OVC,,0.00,147.0,WeatherDisplay:10.37,2013-07-25 12:50:00,
2013-07-25 07:55:00,74.8,73.9,30.09,ESE,105,6.0,8.0,97,0.00,OVC,,0.00,203.0,WeatherDisplay:10.37,2013-07-25 12:55:00,
2013-07-25 08:00:00,75.2,74.3,30.09,ESE,108,5.0,8.0,97,0.00,OVC,,0.00,217.0,WeatherDisplay:10.37,2013-07-25 13:00:00,
2013-07-25 08:05:00,75.6,74.7,30.09,ESE,109,6.0,9.0,97,0.00,OVC,,0.00,209.0,WeatherDisplay:10.37,2013-07-25 13:05:00,
2013-07-25 08:10:00,75.8,74.6,30.09,East,84,11.5,11.5,96,0.00,OVC,,0.00,219.0,WeatherDisplay:10.37,2013-07-25 13:10:00,
2013-07-25 08:15:00,76.2,74.7,30.09,ESE,102,8.0,10.0,95,0.00,OVC,,0.00,378.0,WeatherDisplay:10.37,2013-07-25 13:15:00,
2013-07-25 08:20:00,76.6,74.7,30.09,ESE,102,5.0,10.0,94,0.00,OVC,,0.00,258.0,WeatherDisplay:10.37,2013-07-25 13:20:00,
2013-07-25 08:25:00,76.8,74.6,30.09,ESE,102,7.0,16.0,93,0.00,OVC,,0.00,232.0,WeatherDisplay:10.37,2013-07-25 13:25:00,
2013-07-25 08:30:00,77.0,74.5,30.09,East,100,7.0,13.0,92,0.00,OVC,,0.00,191.0,WeatherDisplay:10.37,2013-07-25 13:30:00,
2013-07-25 08:35:00,77.4,74.9,30.09,East,98,7.0,12.0,92,0.00,OVC,,0.00,209.0,WeatherDisplay:10.37,2013-07-25 13:35:00,
2013-07-25 08:40:00,77.8,74.9,30.09,ESE,106,7.0,13.0,91,0.00,OVC,,0.00,318.0,WeatherDisplay:10.37,2013-07-25 13:40:00,
2013-07-25 08:45:00,78.5,75.3,30.09,ESE,110,7.0,13.0,90,0.00,OVC,,0.00,499.0,WeatherDisplay:10.37,2013-07-25 13:45:00,
2013-07-25 08:50:00,79.2,75.4,30.09,ESE,114,8.0,13.0,88,0.00,OVC,,0.00,475.0,WeatherDisplay:10.37,2013-07-25 13:50:00,
2013-07-25 08:55:00,80.0,75.4,30.09,ESE,117,7.0,14.0,86,0.00,OVC,,0.00,609.0,WeatherDisplay:10.37,2013-07-25 13:55:00,
2013-07-25 09:00:00,80.4,74.8,30.09,ESE,112,7.0,13.0,83,0.00,OVC,,0.00,310.0,WeatherDisplay:10.37,2013-07-25 14:00:00,
2013-07-25 09:05:00,80.5,74.5,30.09,ESE,109,10.0,15.0,82,0.00,OVC,,0.00,690.0,WeatherDisplay:10.37,2013-07-25 14:05:00,
2013-07-25 09:10:00,81.7,76.0,30.09,ESE,111,5.0,13.0,83,0.00,OVC,,0.00,730.0,WeatherDisplay:10.37,2013-07-25 14:10:00,
2013-07-25 09:15:00,82.2,75.0,30.10,ESE,115,6.0,14.0,79,0.00,OVC,,0.00,290.0,WeatherDisplay:10.37,2013-07-25 14:15:00,
2013-07-25 09:20:00,82.1,74.6,30.10,ESE,102,8.0,12.0,78,0.00,OVC,,0.00,246.0,WeatherDisplay:10.37,2013-07-25 14:20:00,
2013-07-25 09:25:00,82.3,75.1,30.10,ESE,102,5.0,11.0,79,0.00,OVC,,0.00,310.0,WeatherDisplay:10.37,2013-07-25 14:25:00,
2013-07-25 09:30:00,82.6,75.0,30.10,ESE,115,7.0,12.0,78,0.00,OVC,,0.00,316.0,WeatherDisplay:10.37,2013-07-25 14:30:00,
2013-07-25 09:35:00,83.1,75.6,30.09,ESE,118,8.0,12.0,78,0.00,OVC,,0.00,658.0,WeatherDisplay:10.37,2013-07-25 14:35:00,
2013-07-25 09:40:00,83.7,75.8,30.09,SE,125,7.0,12.0,77,0.00,OVC,,0.00,726.0,WeatherDisplay:10.37,2013-07-25 14:40:00,
2013-07-25 09:45:00,84.5,76.5,30.09,SE,127,7.0,13.0,77,0.00,OVC,,0.00,535.0,WeatherDisplay:10.37,2013-07-25 14:45:00,
2013-07-25 09:50:00,84.9,76.9,30.09,SE,129,6.0,12.0,77,0.00,OVC,,0.00,780.0,WeatherDisplay:10.37,2013-07-25 14:50:00,
2013-07-25 09:55:00,85.3,76.8,30.09,SE,124,8.0,12.0,76,0.00,OVC,,0.00,558.0,WeatherDisplay:10.37,2013-07-25 14:55:00,
2013-07-25 10:00:00,85.2,76.4,30.10,ESE,117,8.0,13.0,75,0.00,OVC,,0.00,451.0,WeatherDisplay:10.37,2013-07-25 15:00:00,
2013-07-25 10:05:00,85.3,76.9,30.09,SE,124,9.0,12.0,76,0.00,OVC,,0.00,480.0,WeatherDisplay:10.37,2013-07-25 15:05:00,
2013-07-25 10:10:00,85.3,76.9,30.10,SE,146,5.8,5.8,76,0.00,OVC,,0.00,494.0,WeatherDisplay:10.37,2013-07-25 15:10:00,
2013-07-25 10:15:00,85.5,77.1,30.10,SE,135,5.0,12.0,76,0.00,OVC,,0.00,431.0,WeatherDisplay:10.37,2013-07-25 15:15:00,
2013-07-25 10:20:00,86.0,77.9,30.10,SE,128,6.0,10.0,77,0.00,OVC,,0.00,660.0,WeatherDisplay:10.37,2013-07-25 15:20:00,
2013-07-25 10:25:00,86.2,77.4,30.10,ESE,116,7.0,10.0,75,0.00,OVC,,0.00,755.0,WeatherDisplay:10.37,2013-07-25 15:25:00,
2013-07-25 10:30:00,86.5,77.2,30.10,ESE,116,6.0,10.0,74,0.00,OVC,,0.00,462.0,WeatherDisplay:10.37,2013-07-25 15:30:00,
2013-07-25 10:35:00,86.6,77.3,30.10,ESE,116,7.0,10.0,74,0.00,OVC,,0.00,648.0,WeatherDisplay:10.37,2013-07-25 15:35:00,
2013-07-25 10:40:00,87.1,77.8,30.10,SE,125,6.0,9.0,74,0.00,OVC,,0.00,710.0,WeatherDisplay:10.37,2013-07-25 15:40:00,
2013-07-25 10:45:00,87.6,77.4,30.10,SE,140,5.0,8.0,72,0.00,OVC,,0.00,705.0,WeatherDisplay:10.37,2013-07-25 15:45:00,
2013-07-25 10:50:00,87.8,77.7,30.10,SE,129,7.0,10.0,72,0.00,OVC,,0.00,727.0,WeatherDisplay:10.37,2013-07-25 15:50:00,
2013-07-25 10:55:00,88.4,78.3,30.10,SE,128,2.0,8.0,72,0.00,OVC,,0.00,920.0,WeatherDisplay:10.37,2013-07-25 15:55:00,
2013-07-25 11:00:00,89.5,79.3,30.10,SSE,152,8.1,8.1,72,0.00,OVC,,0.00,936.0,WeatherDisplay:10.37,2013-07-25 16:00:00,
2013-07-25 11:05:00,89.7,78.2,30.11,SSE,148,6.0,9.0,69,0.00,OVC,,0.00,808.0,WeatherDisplay:10.37,2013-07-25 16:05:00,
2013-07-25 11:10:00,89.9,78.4,30.10,SSW,193,9.2,9.2,69,0.00,OVC,,0.00,842.0,WeatherDisplay:10.37,2013-07-25 16:10:00,
2013-07-25 11:15:00,90.2,78.2,30.11,SE,140,3.0,8.0,68,0.00,OVC,,0.00,803.0,WeatherDisplay:10.37,2013-07-25 16:15:00,
2013-07-25 11:20:00,90.6,78.2,30.11,SE,145,7.0,10.0,67,0.00,OVC,,0.00,659.0,WeatherDisplay:10.37,2013-07-25 16:20:00,
2013-07-25 11:25:00,90.2,77.8,30.10,ESE,119,10.4,10.4,67,0.00,OVC,,0.00,820.0,WeatherDisplay:10.37,2013-07-25 16:25:00,
2013-07-25 11:31:00,90.1,77.7,30.10,ENE,74,9.2,9.2,67,0.00,OVC,,0.00,914.0,WeatherDisplay:10.37,2013-07-25 16:31:00,
2013-07-25 11:36:00,90.9,78.4,30.11,East,80,8.1,8.1,67,0.00,OVC,,0.00,929.0,WeatherDisplay:10.37,2013-07-25 16:36:00,
2013-07-25 11:41:00,91.1,78.6,30.11,SE,139,8.1,8.1,67,0.00,OVC,,0.00,1030.0,WeatherDisplay:10.37,2013-07-25 16:41:00,
2013-07-25 11:46:00,91.5,79.0,30.11,East,97,11.4,11.4,67,0.00,OVC,,0.00,1059.0,WeatherDisplay:10.37,2013-07-25 16:46:00,
2013-07-25 11:51:00,91.4,77.0,30.11,East,96,5.8,5.8,63,0.00,OVC,,0.00,1053.0,WeatherDisplay:10.37,2013-07-25 16:51:00,
2013-07-25 11:57:00,92.1,77.7,30.11,ENE,78,10.4,10.4,63,0.00,OVC,,0.00,1118.0,WeatherDisplay:10.37,2013-07-25 16:57:00,
2013-07-25 12:02:00,92.0,77.1,30.11,ESE,119,5.8,5.8,62,0.00,OVC,,0.00,470.0,WeatherDisplay:10.37,2013-07-25 17:02:00,
2013-07-25 12:07:00,91.6,77.2,30.11,East,95,9.2,9.2,63,0.00,OVC,,0.00,489.0,WeatherDisplay:10.37,2013-07-25 17:07:00,
2013-07-25 12:12:00,91.7,76.8,30.11,SSE,150,5.8,5.8,62,0.00,OVC,,0.00,596.0,WeatherDisplay:10.37,2013-07-25 17:12:00,
2013-07-25 12:17:00,92.2,77.3,30.11,SE,141,3.5,3.5,62,0.00,OVC,,0.00,1070.0,WeatherDisplay:10.37,2013-07-25 17:17:00,
2013-07-25 12:23:00,93.3,78.3,30.11,South,169,5.8,5.8,62,0.00,OVC,,0.00,1138.0,WeatherDisplay:10.37,2013-07-25 17:23:00,
2013-07-25 12:28:00,94.0,77.0,30.11,East,79,8.1,8.1,58,0.00,OVC,,0.00,1183.0,WeatherDisplay:10.37,2013-07-25 17:28:00,
2013-07-25 12:33:00,94.1,77.6,30.11,East,84,6.9,6.9,59,0.00,CLR,,0.00,936.0,WeatherDisplay:10.37,2013-07-25 17:33:00,
2013-07-25 12:38:00,93.8,76.3,30.11,ENE,73,5.8,5.8,57,0.00,CLR,,0.00,848.0,WeatherDisplay:10.37,2013-07-25 17:38:00,
2013-07-25 12:43:00,93.0,75.5,30.11,SSE,159,4.6,4.6,57,0.00,CLR,,0.00,984.0,WeatherDisplay:10.37,2013-07-25 17:43:00,
2013-07-25 12:49:00,93.3,75.8,30.11,East,86,6.9,6.9,57,0.00,CLR,,0.00,458.0,WeatherDisplay:10.37,2013-07-25 17:49:00,
2013-07-25 12:54:00,92.8,75.3,30.11,NNW,329,3.5,3.5,57,0.00,CLR,,0.00,555.0,WeatherDisplay:10.37,2013-07-25 17:54:00,
2013-07-25 12:59:00,93.3,76.8,30.11,ENE,69,1.2,1.2,59,0.00,CLR,,0.00,1119.0,WeatherDisplay:10.37,2013-07-25 17:59:00,
2013-07-25 13:04:00,93.7,75.1,30.11,SSE,157,4.6,4.6,55,0.00,CLR,,0.00,1135.0,WeatherDisplay:10.37,2013-07-25 18:04:00,
2013-07-25 13:09:00,94.1,76.5,30.11,NW,325,5.1,5.1,57,0.00,CLR,,0.00,466.0,WeatherDisplay:10.37,2013-07-25 18:09:00,
2013-07-25 13:15:00,94.0,74.9,30.11,NW,308,3.0,8.0,54,0.00,CLR,,0.00,352.0,WeatherDisplay:10.37,2013-07-25 18:15:00,
2013-07-25 13:20:00,93.7,75.1,30.11,NNW,331,8.1,8.1,55,0.00,CLR,,0.00,366.0,WeatherDisplay:10.37,2013-07-25 18:20:00,
2013-07-25 13:25:00,93.1,75.1,30.11,NNW,337,1.0,7.0,56,0.00,CLR,,0.00,367.0,WeatherDisplay:10.37,2013-07-25 18:25:00,
2013-07-25 13:30:00,92.9,74.9,30.11,NNW,343,2.0,6.0,56,0.00,CLR,,0.00,1059.0,WeatherDisplay:10.37,2013-07-25 18:30:00,
2013-07-25 13:35:00,93.1,75.6,30.11,NW,324,3.0,6.0,57,0.00,CLR,,0.00,969.0,WeatherDisplay:10.37,2013-07-25 18:35:00,
2013-07-25 13:40:00,94.5,76.4,30.10,NNW,346,4.8,4.8,56,0.00,CLR,,0.00,891.0,WeatherDisplay:10.37,2013-07-25 18:40:00,
2013-07-25 13:45:00,94.4,75.2,30.10,NW,311,3.0,8.0,54,0.00,CLR,,0.00,540.0,WeatherDisplay:10.37,2013-07-25 18:45:00,
2013-07-25 13:50:00,93.9,75.2,30.10,WNW,290,5.0,8.0,55,0.00,CLR,,0.00,861.0,WeatherDisplay:10.37,2013-07-25 18:50:00,
2013-07-25 13:55:00,93.1,76.1,30.10,NNE,17,6.0,10.0,58,0.00,CLR,,0.00,1005.0,WeatherDisplay:10.37,2013-07-25 18:55:00,
2013-07-25 14:00:00,94.1,76.0,30.10,NE,34,8.0,10.0,56,0.00,CLR,,0.00,709.0,WeatherDisplay:10.37,2013-07-25 19:00:00,
2013-07-25 14:05:00,93.7,75.7,30.10,NNE,33,8.0,10.0,56,0.00,CLR,,0.00,611.0,WeatherDisplay:10.37,2013-07-25 19:05:00,
2013-07-25 14:10:00,93.6,75.5,30.09,NNE,33,7.0,8.0,56,0.00,CLR,,0.00,588.0,WeatherDisplay:10.37,2013-07-25 19:10:00,
2013-07-25 14:15:00,92.7,74.7,30.09,East,81,5.7,5.7,56,0.00,CLR,,0.00,867.0,WeatherDisplay:10.37,2013-07-25 19:15:00,
2013-07-25 14:20:00,93.0,74.4,30.09,ENE,67,3.0,6.0,55,0.00,CLR,,0.00,944.0,WeatherDisplay:10.37,2013-07-25 19:20:00,
2013-07-25 14:25:00,93.4,75.3,30.09,ENE,61,6.0,10.0,56,0.00,CLR,,0.00,715.0,WeatherDisplay:10.37,2013-07-25 19:25:00,
2013-07-25 14:30:00,93.7,75.6,30.09,NE,45,6.0,7.0,56,0.00,CLR,,0.00,677.0,WeatherDisplay:10.37,2013-07-25 19:30:00,
2013-07-25 14:35:00,94.8,75.6,30.09,North,2,5.0,9.0,54,0.00,CLR,,0.00,744.0,WeatherDisplay:10.37,2013-07-25 19:35:00,
2013-07-25 14:40:00,94.0,74.3,30.09,NNE,27,1.0,8.0,53,0.00,CLR,,0.00,506.0,WeatherDisplay:10.37,2013-07-25 19:40:00,
2013-07-25 14:45:00,93.7,75.1,30.09,NE,45,9.2,9.2,55,0.00,CLR,,0.00,850.0,WeatherDisplay:10.37,2013-07-25 19:45:00,
2013-07-25 14:50:00,93.8,74.1,30.08,NE,46,6.9,6.9,53,0.00,CLR,,0.00,1016.0,WeatherDisplay:10.37,2013-07-25 19:50:00,
2013-07-25 14:55:00,94.3,75.6,30.08,SW,227,5.1,5.1,55,0.00,CLR,,0.00,818.0,WeatherDisplay:10.37,2013-07-25 19:55:00,
2013-07-25 15:00:00,94.7,76.0,30.08,NNE,33,7.2,7.2,55,0.00,CLR,,0.00,978.0,WeatherDisplay:10.37,2013-07-25 20:00:00,
2013-07-25 15:05:00,94.9,75.7,30.08,SSE,149,8.1,8.1,54,0.00,CLR,,0.00,880.0,WeatherDisplay:10.37,2013-07-25 20:05:00,
2013-07-25 15:10:00,94.5,75.3,30.08,ESE,102,5.8,5.8,54,0.00,CLR,,0.00,834.0,WeatherDisplay:10.37,2013-07-25 20:10:00,
2013-07-25 15:16:00,95.5,76.8,30.08,SSE,161,8.1,8.1,55,0.00,CLR,,0.00,827.0,WeatherDisplay:10.37,2013-07-25 20:16:00,
2013-07-25 15:21:00,95.7,76.4,30.07,South,191,8.1,8.1,54,0.00,CLR,,0.00,736.0,WeatherDisplay:10.37,2013-07-25 20:21:00,
2013-07-25 15:26:00,95.0,75.2,30.07,ENE,70,5.8,5.8,53,0.00,CLR,,0.00,706.0,WeatherDisplay:10.37,2013-07-25 20:26:00,
2013-07-25 15:31:00,95.3,76.0,30.07,ESE,112,4.6,4.6,54,0.00,CLR,,0.00,749.0,WeatherDisplay:10.37,2013-07-25 20:31:00,
2013-07-25 15:37:00,95.6,75.7,30.07,SSE,151,6.9,6.9,53,0.00,CLR,,0.00,662.0,WeatherDisplay:10.37,2013-07-25 20:37:00,
2013-07-25 15:42:00,95.9,74.3,30.07,NNE,14,6.9,6.9,50,0.00,FEW,,0.00,520.0,WeatherDisplay:10.37,2013-07-25 20:42:00,
2013-07-25 15:47:00,96.3,75.2,30.07,SE,125,8.1,8.1,51,0.00,FEW,,0.00,513.0,WeatherDisplay:10.37,2013-07-25 20:47:00,
2013-07-25 15:52:00,95.9,74.9,30.06,ENE,66,5.8,5.8,51,0.00,SCT,,0.00,448.0,WeatherDisplay:10.37,2013-07-25 20:52:00,
2013-07-25 15:57:00,95.8,74.8,30.07,ENE,71,4.6,4.6,51,0.00,SCT,,0.00,419.0,WeatherDisplay:10.37,2013-07-25 20:57:00,
2013-07-25 16:02:00,95.6,75.7,30.07,SE,136,5.8,5.8,53,0.00,SCT,,0.00,498.0,WeatherDisplay:10.37,2013-07-25 21:02:00,
2013-07-25 16:07:00,95.2,74.2,30.06,SE,136,2.3,2.3,51,0.00,SCT,,0.00,460.0,WeatherDisplay:10.37,2013-07-25 21:07:00,
2013-07-25 16:13:00,95.5,75.6,30.06,SSE,163,5.8,5.8,53,0.00,FEW,,0.00,601.0,WeatherDisplay:10.37,2013-07-25 21:13:00,
2013-07-25 16:18:00,95.7,75.3,30.06,East,95,8.1,8.1,52,0.00,SCT,,0.00,593.0,WeatherDisplay:10.37,2013-07-25 21:18:00,
2013-07-25 16:23:00,95.7,75.3,30.06,East,81,4.2,4.2,52,0.00,SCT,,0.00,423.0,WeatherDisplay:10.37,2013-07-25 21:23:00,
2013-07-25 16:29:00,95.4,75.0,30.06,ESE,117,6.9,6.9,52,0.00,SCT,,0.00,576.0,WeatherDisplay:10.37,2013-07-25 21:29:00,
2013-07-25 16:34:00,95.0,75.2,30.05,East,92,12.7,12.7,53,0.00,FEW,,0.00,775.0,WeatherDisplay:10.37,2013-07-25 21:34:00,
2013-07-25 16:39:00,94.9,75.7,30.05,East,91,16.1,16.1,54,0.00,BKN,,0.00,355.0,WeatherDisplay:10.37,2013-07-25 21:39:00,
2013-07-25 16:44:00,94.8,75.6,30.05,ESE,118,13.8,13.8,54,0.00,OVC,,0.00,300.0,WeatherDisplay:10.37,2013-07-25 21:44:00,
2013-07-25 16:50:00,94.9,76.2,30.05,ESE,115,8.0,16.0,55,0.00,SCT,,0.00,625.0,WeatherDisplay:10.37,2013-07-25 21:50:00,
2013-07-25 16:55:00,95.0,75.7,30.04,ESE,118,7.0,14.0,54,0.00,SCT,,0.00,670.0,WeatherDisplay:10.37,2013-07-25 21:55:00,
2013-07-25 17:00:00,95.2,75.9,30.02,ESE,119,10.0,15.0,54,0.00,FEW,,0.00,713.0,WeatherDisplay:10.37,2013-07-25 22:00:00,
2013-07-25 17:05:00,95.4,76.1,30.02,ESE,119,9.0,15.0,54,0.00,SCT,,0.00,724.0,WeatherDisplay:10.37,2013-07-25 22:05:00,
2013-07-25 17:10:00,95.6,76.3,30.01,ESE,113,9.0,15.0,54,0.00,SCT,,0.00,682.0,WeatherDisplay:10.37,2013-07-25 22:10:00,
2013-07-25 17:15:00,95.7,75.8,29.99,ESE,117,9.0,17.0,53,0.00,SCT,,0.00,655.0,WeatherDisplay:10.37,2013-07-25 22:15:00,
2013-07-25 17:20:00,95.3,74.9,29.99,ESE,111,12.0,16.0,52,0.00,SCT,,0.00,628.0,WeatherDisplay:10.37,2013-07-25 22:20:00,
2013-07-25 17:25:00,95.2,75.4,29.97,ESE,112,12.7,12.7,53,0.00,OVC,,0.00,161.0,WeatherDisplay:10.37,2013-07-25 22:25:00,
2013-07-25 17:30:00,94.6,74.8,29.97,East,99,8.1,8.1,53,0.00,SCT,,0.00,569.0,WeatherDisplay:10.37,2013-07-25 22:30:00,
2013-07-25 17:35:00,94.9,74.5,29.97,ESE,117,13.8,13.8,52,0.00,BKN,,0.00,558.0,WeatherDisplay:10.37,2013-07-25 22:35:00,
2013-07-25 17:40:00,95.3,74.9,30.05,East,96,10.4,10.4,52,0.00,BKN,,0.00,537.0,WeatherDisplay:10.37,2013-07-25 22:40:00,
2013-07-25 17:46:00,95.5,75.1,30.05,ESE,110,8.7,8.7,52,0.00,BKN,,0.00,512.0,WeatherDisplay:10.37,2013-07-25 22:46:00,
2013-07-25 17:51:00,95.9,75.4,29.97,SE,141,15.0,15.0,52,0.00,BKN,,0.00,396.0,WeatherDisplay:10.37,2013-07-25 22:51:00,
2013-07-25 17:56:00,95.7,75.3,29.98,SE,130,13.8,13.8,52,0.00,BKN,,0.00,524.0,WeatherDisplay:10.37,2013-07-25 22:56:00,
2013-07-25 18:02:00,95.8,75.3,29.98,SE,133,10.4,10.4,52,0.00,BKN,,0.00,509.0,WeatherDisplay:10.37,2013-07-25 23:02:00,
2013-07-25 18:07:00,95.8,75.3,29.99,SSE,166,11.5,11.5,52,0.00,BKN,,0.00,309.0,WeatherDisplay:10.37,2013-07-25 23:07:00,
2013-07-25 18:12:00,95.5,75.1,29.98,East,100,13.8,13.8,52,0.00,OVC,,0.00,364.0,WeatherDisplay:10.37,2013-07-25 23:12:00,
2013-07-25 18:17:00,95.1,74.7,29.97,ESE,123,12.7,12.7,52,0.00,OVC,,0.00,162.0,WeatherDisplay:10.37,2013-07-25 23:17:00,
2013-07-25 18:22:00,94.4,74.6,29.98,East,99,10.4,10.4,53,0.00,OVC,,0.00,372.0,WeatherDisplay:10.37,2013-07-25 23:22:00,
2013-07-25 18:27:00,94.4,75.2,29.99,ESE,123,10.5,10.5,54,0.00,OVC,,0.00,371.0,WeatherDisplay:10.37,2013-07-25 23:27:00,
2013-07-25 18:33:00,94.2,75.0,29.99,ESE,113,11.5,11.5,54,0.00,OVC,,0.00,164.0,WeatherDisplay:10.37,2013-07-25 23:33:00,
2013-07-25 18:38:00,93.8,75.2,30.05,SE,143,11.5,11.5,55,0.00,OVC,,0.00,104.0,WeatherDisplay:10.37,2013-07-25 23:38:00,
2013-07-25 18:43:00,93.1,75.1,29.98,SE,138,10.4,10.4,56,0.00,OVC,,0.00,141.0,WeatherDisplay:10.37,2013-07-25 23:43:00,
2013-07-25 18:49:00,93.0,75.5,29.98,SE,133,11.5,11.5,57,0.00,OVC,,0.00,107.0,WeatherDisplay:10.37,2013-07-25 23:49:00,
2013-07-25 18:54:00,92.6,75.1,30.03,ESE,117,9.2,9.2,57,0.00,OVC,,0.00,90.0,WeatherDisplay:10.37,2013-07-25 23:54:00,
2013-07-25 18:59:00,92.2,75.3,30.04,SE,145,10.5,10.5,58,0.00,OVC,,0.00,128.0,WeatherDisplay:10.37,2013-07-25 23:59:00,
2013-07-25 19:04:00,92.0,75.1,30.05,ESE,119,12.7,12.7,58,0.00,OVC,,0.00,175.0,WeatherDisplay:10.37,2013-07-26 00:04:00,
2013-07-25 19:10:00,91.8,75.4,30.03,ESE,104,10.4,10.4,59,0.00,OVC,,0.00,108.0,WeatherDisplay:10.37,2013-07-26 00:10:00,
2013-07-25 19:15:00,91.4,75.1,30.03,SE,126,11.5,11.5,59,0.00,OVC,,0.00,87.0,WeatherDisplay:10.37,2013-07-26 00:15:00,
2013-07-25 19:20:00,91.2,74.9,30.04,ESE,117,5.0,13.0,59,0.00,OVC,,0.00,75.0,WeatherDisplay:10.37,2013-07-26 00:20:00,
2013-07-25 19:25:00,90.8,75.0,30.04,East,85,8.1,8.1,60,0.00,OVC,,0.00,67.0,WeatherDisplay:10.37,2013-07-26 00:25:00,
2013-07-25 19:30:00,90.8,75.0,30.05,ESE,116,5.8,5.8,60,0.00,OVC,,0.00,61.0,WeatherDisplay:10.37,2013-07-26 00:30:00,
2013-07-25 19:36:00,90.4,75.1,30.04,East,100,9.2,9.2,61,0.00,OVC,,0.00,55.0,WeatherDisplay:10.37,2013-07-26 00:36:00,
2013-07-25 19:41:00,90.3,75.0,30.05,SE,134,8.1,8.1,61,0.00,OVC,,0.00,53.0,WeatherDisplay:10.37,2013-07-26 00:41:00,
2013-07-25 19:46:00,90.2,75.4,30.04,SE,139,9.2,9.2,62,0.00,OVC,,0.00,46.0,WeatherDisplay:10.37,2013-07-26 00:46:00,
2013-07-25 19:51:00,89.9,75.1,30.04,SSE,149,7.2,7.2,62,0.00,OVC,,0.00,36.0,WeatherDisplay:10.37,2013-07-26 00:51:00,
2013-07-25 19:57:00,89.7,74.5,30.04,ESE,115,8.7,8.7,61,0.00,OVC,,0.00,27.0,WeatherDisplay:10.37,2013-07-26 00:57:00,
2013-07-25 20:02:00,89.5,74.8,30.04,SE,133,9.2,9.2,62,0.00,OVC,,0.00,21.0,WeatherDisplay:10.37,2013-07-26 01:02:00,
2013-07-25 20:07:00,89.3,74.6,30.04,SE,128,9.2,9.2,62,0.00,OVC,,0.00,16.0,WeatherDisplay:10.37,2013-07-26 01:07:00,
2013-07-25 20:12:00,89.0,74.8,30.04,SE,141,9.6,9.6,63,0.00,OVC,,0.00,11.0,WeatherDisplay:10.37,2013-07-26 01:12:00,
2013-07-25 20:17:00,88.8,74.6,30.04,SE,143,10.8,10.8,63,0.00,OVC,,0.00,8.0,WeatherDisplay:10.37,2013-07-26 01:17:00,
2013-07-25 20:23:00,88.6,74.4,30.04,SE,138,8.1,8.1,63,0.00,OVC,,0.00,4.0,WeatherDisplay:10.37,2013-07-26 01:23:00,
2013-07-25 20:28:00,88.4,74.7,30.04,East,101,8.1,8.1,64,0.00,OVC,,0.00,3.0,WeatherDisplay:10.37,2013-07-26 01:28:00,
2013-07-25 20:33:00,88.2,74.5,30.04,SSE,147,6.9,6.9,64,0.00,OVC,,0.00,2.0,WeatherDisplay:10.37,2013-07-26 01:33:00,
2013-07-25 20:38:00,87.9,74.2,30.04,SE,133,5.8,5.8,64,0.00,OVC,,0.00,2.0,WeatherDisplay:10.37,2013-07-26 01:38:00,
2013-07-25 20:43:00,87.4,74.2,30.04,ESE,112,8.1,8.1,65,0.00,OVC,,0.00,2.0,WeatherDisplay:10.37,2013-07-26 01:43:00,
2013-07-25 20:48:00,87.1,74.4,30.04,ESE,116,9.2,9.2,66,0.00,OVC,,0.00,1.0,WeatherDisplay:10.37,2013-07-26 01:48:00,
2013-07-25 20:53:00,86.9,74.6,30.04,ESE,107,8.1,8.1,67,0.00,OVC,,0.00,1.0,WeatherDisplay:10.37,2013-07-26 01:53:00,
2013-07-25 20:59:00,86.5,74.2,30.04,ESE,107,9.2,9.2,67,0.00,OVC,,0.00,1.0,WeatherDisplay:10.37,2013-07-26 01:59:00,
2013-07-25 21:04:00,86.4,74.6,30.05,ESE,109,8.1,8.1,68,0.00,CLR,,0.00,1.0,WeatherDisplay:10.37,2013-07-26 02:04:00,
2013-07-25 21:09:00,86.1,74.3,30.05,SE,134,8.1,8.1,68,0.00,CLR,,0.00,1.0,WeatherDisplay:10.37,2013-07-26 02:09:00,
2013-07-25 21:14:00,85.9,74.1,30.05,East,98,4.6,4.6,68,0.00,CLR,,0.00,1.0,WeatherDisplay:10.37,2013-07-26 02:14:00,
2013-07-25 21:20:00,85.8,74.0,30.05,SE,142,4.6,4.6,68,0.00,CLR,,0.00,1.0,WeatherDisplay:10.37,2013-07-26 02:20:00,
2013-07-25 21:25:00,85.7,73.9,30.05,SE,128,3.0,6.0,68,0.00,CLR,,0.00,0.0,WeatherDisplay:10.37,2013-07-26 02:25:00,
2013-07-25 21:30:00,85.5,73.7,30.06,SE,129,5.0,6.0,68,0.00,CLR,,0.00,0.0,WeatherDisplay:10.37,2013-07-26 02:30:00,
2013-07-25 21:35:00,85.3,74.0,30.06,SE,125,5.0,7.0,69,0.00,CLR,,0.00,0.0,WeatherDisplay:10.37,2013-07-26 02:35:00,
2013-07-25 21:40:00,85.1,73.8,30.06,ESE,122,3.0,6.0,69,0.00,CLR,,0.00,1.0,WeatherDisplay:10.37,2013-07-26 02:40:00,
2013-07-25 21:45:00,85.0,74.1,30.06,SE,125,3.0,6.0,70,0.00,CLR,,0.00,1.0,WeatherDisplay:10.37,2013-07-26 02:45:00,
2013-07-25 21:50:00,84.8,73.9,30.06,SE,125,3.0,6.0,70,0.00,CLR,,0.00,0.0,WeatherDisplay:10.37,2013-07-26 02:50:00,
2013-07-25 21:55:00,84.5,74.1,30.07,ESE,116,3.0,6.0,71,0.00,CLR,,0.00,0.0,WeatherDisplay:10.37,2013-07-26 02:55:00,
2013-07-25 22:00:00,84.4,74.0,30.07,ESE,113,4.6,4.6,71,0.00,CLR,,0.00,1.0,WeatherDisplay:10.37,2013-07-26 03:00:00,
2013-07-25 22:05:00,84.2,74.2,30.07,ESE,115,5.0,7.0,72,0.00,CLR,,0.00,0.0,WeatherDisplay:10.37,2013-07-26 03:05:00,
2013-07-25 22:10:00,84.0,74.0,30.07,ESE,115,5.0,7.0,72,0.00,CLR,,0.00,1.0,WeatherDisplay:10.37,2013-07-26 03:10:00,
2013-07-25 22:15:00,83.8,74.2,30.07,ESE,118,2.0,5.0,73,0.00,CLR,,0.00,0.0,WeatherDisplay:10.37,2013-07-26 03:15:00,
2013-07-25 22:20:00,83.7,74.1,30.07,SE,129,3.0,5.0,73,0.00,CLR,,0.00,0.0,WeatherDisplay:10.37,2013-07-26 03:20:00,
2013-07-25 22:25:00,83.6,74.4,30.06,SE,136,6.0,7.0,74,0.00,CLR,,0.00,0.0,WeatherDisplay:10.37,2013-07-26 03:25:00,
2013-07-25 22:30:00,83.4,74.6,30.06,SE,137,6.0,8.0,75,0.00,CLR,,0.00,0.0,WeatherDisplay:10.37,2013-07-26 03:30:00,
2013-07-25 22:35:00,83.3,74.5,30.05,SE,139,7.0,10.0,75,0.00,CLR,,0.00,0.0,WeatherDisplay:10.37,2013-07-26 03:35:00,
2013-07-25 22:40:00,83.3,74.9,30.05,SE,144,6.0,10.0,76,0.00,CLR,,0.00,0.0,WeatherDisplay:10.37,2013-07-26 03:40:00,
2013-07-25 22:45:00,83.2,74.8,30.05,SSE,147,9.2,9.2,76,0.00,CLR,,0.00,1.0,WeatherDisplay:10.37,2013-07-26 03:45:00,
2013-07-25 22:50:00,83.2,74.8,30.06,SE,146,8.1,8.1,76,0.00,CLR,,0.00,1.0,WeatherDisplay:10.37,2013-07-26 03:50:00,
2013-07-25 22:55:00,83.1,74.7,30.05,SE,125,9.2,9.2,76,0.00,CLR,,0.00,1.0,WeatherDisplay:10.37,2013-07-26 03:55:00,
2013-07-25 23:00:00,83.1,75.1,30.05,SSE,147,8.1,8.1,77,0.00,CLR,,0.00,1.0,WeatherDisplay:10.37,2013-07-26 04:00:00,
2013-07-25 23:01:00,83.1,75.1,30.05,SSE,163,7.8,7.8,77,0.00,CLR,,0.00,1.0,WeatherDisplay:10.37,2013-07-26 04:01:00,
2013-07-25 23:02:00,83.1,75.1,30.06,SE,136,8.1,8.1,77,0.00,CLR,,0.00,1.0,WeatherDisplay:10.37,2013-07-26 04:02:00,
2013-07-25 23:03:00,83.1,75.1,30.05,SE,135,8.1,8.1,77,0.00,CLR,,0.00,1.0,WeatherDisplay:10.37,2013-07-26 04:03:00,
2013-07-25 23:08:00,83.1,75.1,30.06,SSE,153,10.4,10.4,77,0.00,CLR,,0.00,1.0,WeatherDisplay:10.37,2013-07-26 04:08:00,
2013-07-25 23:13:00,83.1,75.1,30.06,SSE,166,13.8,13.8,77,0.00,CLR,,0.00,1.0,WeatherDisplay:10.37,2013-07-26 04:13:00,
2013-07-25 23:18:00,83.1,74.7,30.05,SE,140,10.8,10.8,76,0.00,CLR,,0.00,1.0,WeatherDisplay:10.37,2013-07-26 04:18:00,
2013-07-25 23:23:00,83.0,74.6,30.05,SE,136,11.5,11.5,76,0.00,CLR,,0.00,1.0,WeatherDisplay:10.37,2013-07-26 04:23:00,
2013-07-25 23:29:00,83.1,74.7,30.05,SE,146,13.8,13.8,76,0.00,CLR,,0.00,1.0,WeatherDisplay:10.37,2013-07-26 04:29:00,
2013-07-25 23:34:00,83.1,74.7,30.05,SE,134,9.9,9.9,76,0.00,CLR,,0.00,1.0,WeatherDisplay:10.37,2013-07-26 04:34:00,
2013-07-25 23:39:00,83.0,74.6,30.05,SE,128,10.4,10.4,76,0.00,CLR,,0.00,1.0,WeatherDisplay:10.37,2013-07-26 04:39:00,
2013-07-25 23:44:00,82.9,74.6,30.06,SE,142,10.4,10.4,76,0.00,CLR,,0.00,1.0,WeatherDisplay:10.37,2013-07-26 04:44:00,
2013-07-25 23:50:00,82.9,74.9,30.05,SE,139,8.1,8.1,77,0.00,CLR,,0.00,1.0,WeatherDisplay:10.37,2013-07-26 04:50:00,
2013-07-25 23:55:00,82.8,74.9,30.05,SE,141,7.0,10.0,77,0.00,CLR,,0.00,0.0,WeatherDisplay:10.37,2013-07-26 04:55:00,